Binghamton, NY

8:49 PM EDT on September 16, 2019 (GMT -0400)
Binghamton Regional-Link

Weather History for KBGM - August, 2019

Change the Weather History Date:

Monday, August 19, 2019

  Actual Average Record
Temperature  
Mean Temperature 70 °F 67 °F  
Max Temperature 79 °F 76 °F 86 °F (1955)
Min Temperature 61 °F 58 °F 43 °F (1963)
Degree Days  
Heating Degree Days 0 1  
Month to date heating degree days 19  
Since 1 June heating degree days 134  
Since 1 July heating degree days 43  
Cooling Degree Days 5 4  
Month to date cooling degree days 76  
Year to date cooling degree days 311  
Since 1 June cooling degree days 288  
Growing Degree Days 20 (Base 50)    
Moisture  
Dew Point 62 °F    
Average Humidity 84    
Maximum Humidity 100    
Minimum Humidity 62    
Precipitation  
Precipitation 0.00 in 0.12 in 2.73 in (2006)
Month to date precipitation 2.13  
Year to date precipitation 24.89  
Snow  
Snow - 0.00 in 0.00 in (2002)
Month to date snowfall 0.0  
Since 1 June snowfall 0.0  
Since 1 July snowfall 0.0  
Snow Depth -    
Sea Level Pressure  
Sea Level Pressure 30.00 in    
Wind  
Wind Speed 5 mph ()    
Max Wind Speed 9 mph    
Max Gust Speed 25 mph    
Visibility 9.5 miles    
Events      
T = Trace of Precipitation, MM = Missing Value Source: Averaged Metar Reports

Daily Weather History Graph

Daily Weather History Graph

Search for Another Location

Airport or City:

Astronomy

Aug. 19, 2019 Rise Set
Actual Time 6:15 AM EDT 7:59 PM EDT
Civil Twilight 5:45 AM EDT 8:28 PM EDT
Nautical Twilight 5:09 AM EDT 9:04 PM EDT
Astronomical Twilight 4:30 AM EDT 9:43 PM EDT
Moon 10:15 PM EDT (8/19) 9:57 AM EDT (8/19)
Length of Visible Light 14h 43m
Length of Day
13h 43m
Waning Gibbous, 85% of the Moon is Illuminated
Aug 19
Waning Gibbous
Aug 23
Last Quarter
Aug 30
New
Sep 5
First Quarter
Sep 14
Full

Hourly Weather History & Observations

Time (EDT) Temp. Dew Point Humidity Pressure Visibility Wind Dir Wind Speed Gust Speed Precip Events Conditions
12:53 AM 64.9 °F 59.0 °F 81% 29.95 in 10.0 mi SSW 3.5 mph - N/A   Clear
1:53 AM 63.0 °F 59.0 °F 87% 29.95 in 10.0 mi SSW 5.8 mph - N/A   Clear
2:53 AM 63.0 °F 61.0 °F 93% 29.94 in 10.0 mi SSW 5.8 mph - N/A   Scattered Clouds
3:53 AM 66.0 °F 61.0 °F 84% 29.95 in 10.0 mi SW 9.2 mph - N/A   Clear
4:53 AM 64.9 °F 62.1 °F 90% 29.96 in 10.0 mi South 6.9 mph - N/A   Mostly Cloudy
5:53 AM 64.0 °F 62.1 °F 93% 29.97 in 10.0 mi South 6.9 mph - N/A   Clear
6:13 AM 62.1 °F 61.0 °F 96% 30.03 in 9.0 mi WNW 9.2 mph 25.3 mph N/A   Mostly Cloudy
6:25 AM 62.1 °F 61.0 °F 96% 30.02 in 5.0 mi Calm Calm - N/A   Overcast
6:39 AM 61.0 °F 61.0 °F 100% 30.01 in 7.0 mi South 4.6 mph - N/A   Scattered Clouds
6:53 AM 63.0 °F 61.0 °F 93% 29.99 in 10.0 mi SSW 3.5 mph - N/A   Partly Cloudy
7:53 AM 66.9 °F 63.0 °F 87% 30.00 in 10.0 mi SSW 5.8 mph - N/A   Clear
8:53 AM 68.0 °F 64.9 °F 90% 29.98 in 10.0 mi South 3.5 mph - N/A   Partly Cloudy
9:53 AM 66.9 °F 64.0 °F 90% 30.02 in 10.0 mi WSW 3.5 mph - 0.00 in   Scattered Clouds
10:53 AM 69.1 °F 64.9 °F 87% 30.04 in 10.0 mi WSW 5.8 mph - N/A   Clear
11:53 AM 73.9 °F 64.9 °F 73% 30.04 in 10.0 mi WSW 6.9 mph - N/A   Clear
12:53 PM 75.0 °F 63.0 °F 66% 30.04 in 10.0 mi NW 9.2 mph - N/A   Overcast
1:53 PM 75.0 °F 63.0 °F 66% 30.04 in 10.0 mi NNW 3.5 mph - N/A   Mostly Cloudy
2:53 PM 79.0 °F 64.9 °F 62% 30.02 in 10.0 mi WSW 6.9 mph - N/A   Scattered Clouds
3:53 PM 78.1 °F 64.9 °F 64% 30.00 in 10.0 mi Variable 6.9 mph - N/A   Mostly Cloudy